Vorticity
1 3 1 -2 0 11 4 6 5 5 5 5 5 7 8 6 8 10 7 5 6 3 2 1 2 2 2 2 3 5 6 5 6 6 4 4 4 4 6 7 9 8 6
2 3 -1 -3 1 4 10 6 4 5 4 2 6 5 6 9 6 8 7 8 6 4 4 3 2 2 3 3 4 6 6 6 7 8 6 5 5 5 5 5 5 6 6
3 -1 1 1 2 3 8 6 5 4 4 3 5 6 3 7 8 6 7 8 7 7 7 4 2 2 2 2 3 3 4 6 8 7 7 8 5 4 4 6 6 7 6
-1 0 0 -1 7 2 7 5 4 5 5 3 5 5 4 8 7 8 6 7 8 7 5 4 3 2 1 1 3 4 4 7 9 7 7 7 8 8 6 5 5 5 8
1 1 3 5 6 11 6 5 6 4 6 5 6 7 2 12 8 7 6 6 7 6 6 4 3 3 3 3 4 5 6 8 6 6 7 9 10 10 10 9 7 6 5
6 3 3 7 9 5 5 6 4 6 5 5 6 7 4 9 12 7 7 6 6 7 7 6 4 4 4 4 4 6 7 6 7 8 10 10 13 15 15 16 14 11 8
8 8 9 9 11 8 6 6 6 5 5 4 6 7 4 7 11 7 5 7 7 6 5 4 5 5 5 6 6 8 9 9 10 18 18 8 7 7 6 8 4 3 3
7 10 3 3 4 5 6 6 5 4 5 7 7 9 3 7 13 9 6 7 9 7 7 6 6 6 7 6 6 7 9 12 22 8 3 2 2 -0 0 1 -3 6 9
12 2 9 15 8 10 8 6 7 7 7 7 8 9 3 6 10 11 5 8 9 6 5 7 8 7 6 6 8 8 12 18 3 3 4 3 0 1 1 -1 -1 2 3
7 10 4 6 1 6 8 8 7 5 5 7 7 9 4 6 12 10 6 6 8 5 5 7 6 7 9 7 8 11 15 14 -1 3 0 -1 -2 -0 1 1 3 0 3
4 3 4 4 3 7 10 8 6 6 7 7 8 7 5 6 12 9 8 4 6 6 5 6 7 8 9 8 7 12 18 6 -2 0 -2 -1 -0 -1 -0 1 1 1 2
5 7 6 6 7 8 7 6 7 7 7 6 7 7 4 4 8 13 9 6 6 5 6 7 6 9 9 8 9 9 16 3 2 5 0 -3 0 -1 0 3 1 2 2
5 6 6 4 3 7 9 7 7 7 5 6 5 5 6 5 9 10 10 8 9 7 8 10 8 6 7 8 9 5 11 9 -3 2 1 -0 -0 -1 0 2 3 3 3
6 6 5 6 6 7 7 7 6 5 5 4 6 5 5 7 8 8 8 8 6 5 6 9 7 6 4 4 5 3 10 13 5 0 0 2 -1 1 1 1 2 4 3
5 5 5 6 7 7 7 6 6 8 10 10 11 9 9 8 6 8 7 6 6 6 6 8 6 4 5 4 5 4 3 11 11 2 -1 1 -0 0 1 1 3 5 5
4 4 4 5 5 6 7 7 8 8 8 13 10 9 7 8 6 6 6 5 5 6 9 7 5 5 4 4 5 3 8 6 11 8 5 2 1 3 1 2 2 5 4
6 8 5 3 3 4 6 8 9 8 7 7 11 8 8 10 9 8 7 5 5 6 8 8 5 7 5 5 6 5 4 6 6 11 9 7 6 4 2 2 0 5 4
7 4 3 6 4 4 4 7 6 7 8 6 5 6 7 7 7 10 10 10 7 7 9 10 7 6 6 4 4 5 5 5 7 8 10 11 7 5 4 3 5 6 5
5 6 4 5 6 5 5 4 5 6 5 6 5 5 7 6 6 6 7 7 7 6 6 8 8 8 8 8 5 6 5 6 7 8 9 9 9 9 10 9 7 8 6
4 3 5 6 6 8 4 5 5 5 5 4 6 6 6 7 7 7 6 6 7 10 11 10 9 8 9 8 8 7 5 7 6 4 4 5 5 6 6 7 6 6 6
8 10 9 10 10 6 7 5 5 5 4 5 5 6 7 6 7 8 7 7 8 9 9 9 9 11 10 9 10 10 10 9 8 7 6 4 4 4 4 6 7 7 5
8 8 10 10 7 7 8 6 3 2 3 5 6 6 7 6 7 8 8 8 8 8 8 7 6 5 6 7 9 9 9 10 10 11 11 10 9 8 7 6 5 4 4
6 10 9 6 7 5 4 7 8 5 5 5 5 5 7 9 7 5 5 6 7 8 8 8 9 7 6 7 6 8 9 8 9 9 9 8 7 5 3 5 5 6 8
6 5 5 5 1 11 7 5 5 5 5 3 3 5 5 -1 3 5 7 7 7 11 15 14 12 10 5 5 4 0 -1 2 6 8 13 13 11 5 7 6 4 4 5
7 7 10 6 4 8 6 5 7 6 5 7 6 5 4 6 4 2 4 9 13 6 2 5 11 14 13 15 13 15 24 19 5 7 11 10 11 14 13 14 16 16 15
9 9 8 6 4 3 11 8 9 4 4 2 2 4 5 4 8 6 6 9 2 6 -6 2 5 7 9 17 18 9 4 9 7 4 14 9 1 8 11 14 13 14 13
Height
5863 5863 5863 5863 5862 5861 5859 5858 5857 5855 5855 5854 5854 5854 5853 5851 5850 5849 5848 5848 5847 5847 5847 5847 5846 5845 5844 5843 5843 5842 5841 5840 5839 5838 5837 5836 5836 5835 5835 5833 5833 5832 5832
5861 5862 5861 5861 5860 5859 5858 5856 5855 5854 5853 5852 5851 5851 5850 5850 5848 5847 5845 5845 5845 5844 5844 5844 5844 5844 5843 5842 5841 5839 5838 5838 5836 5836 5835 5834 5834 5834 5833 5832 5830 5830 5829
5858 5858 5858 5858 5857 5856 5855 5854 5853 5852 5851 5849 5848 5847 5846 5845 5845 5844 5843 5842 5842 5842 5842 5842 5842 5841 5840 5839 5838 5837 5836 5835 5833 5833 5832 5832 5831 5831 5830 5830 5829 5828 5828
5855 5854 5855 5854 5854 5853 5851 5850 5850 5849 5848 5847 5845 5844 5842 5841 5841 5840 5840 5840 5839 5839 5838 5838 5838 5838 5836 5835 5835 5834 5833 5832 5831 5830 5830 5829 5829 5828 5828 5827 5826 5826 5825
5851 5851 5851 5850 5850 5849 5848 5847 5846 5845 5844 5843 5842 5841 5839 5838 5837 5836 5836 5836 5835 5835 5835 5834 5834 5834 5834 5833 5831 5831 5830 5829 5828 5827 5826 5826 5826 5826 5825 5825 5824 5823 5822
5848 5848 5847 5846 5845 5844 5843 5842 5842 5841 5840 5839 5838 5837 5837 5835 5833 5832 5832 5831 5831 5831 5831 5831 5831 5831 5830 5829 5828 5828 5826 5826 5825 5825 5824 5824 5824 5824 5824 5823 5822 5821 5820
5844 5842 5842 5842 5841 5840 5838 5838 5838 5836 5835 5834 5833 5832 5832 5831 5829 5828 5828 5828 5827 5826 5826 5827 5827 5826 5826 5825 5824 5824 5823 5823 5822 5822 5822 5822 5822 5822 5823 5822 5821 5820 5819
5838 5837 5837 5836 5835 5834 5834 5833 5833 5832 5831 5830 5829 5828 5827 5825 5825 5824 5824 5824 5823 5823 5822 5822 5823 5822 5821 5821 5821 5821 5820 5820 5820 5821 5820 5820 5821 5820 5821 5820 5820 5819 5818
5833 5832 5832 5832 5831 5830 5829 5829 5829 5827 5826 5825 5824 5824 5823 5821 5820 5820 5819 5820 5819 5819 5818 5817 5817 5818 5817 5817 5817 5817 5817 5817 5818 5818 5818 5818 5818 5818 5818 5818 5818 5818 5817
5828 5828 5827 5826 5825 5824 5824 5823 5822 5822 5820 5820 5820 5819 5818 5816 5815 5815 5815 5815 5815 5814 5813 5813 5812 5812 5812 5813 5813 5813 5813 5812 5813 5814 5814 5815 5815 5815 5815 5815 5815 5815 5814
5823 5821 5820 5819 5817 5816 5816 5816 5815 5815 5815 5815 5813 5813 5813 5811 5810 5810 5810 5810 5809 5809 5808 5808 5808 5808 5808 5808 5808 5808 5809 5809 5810 5810 5811 5810 5810 5811 5812 5812 5812 5811 5811
5816 5816 5814 5812 5810 5809 5809 5808 5808 5808 5808 5809 5808 5807 5807 5806 5805 5805 5804 5805 5804 5804 5804 5804 5803 5803 5803 5803 5804 5805 5805 5805 5806 5806 5807 5807 5806 5806 5806 5807 5808 5808 5807
5810 5808 5806 5805 5804 5803 5802 5802 5802 5802 5802 5802 5802 5801 5801 5800 5799 5798 5798 5799 5799 5799 5798 5798 5798 5797 5798 5799 5799 5800 5800 5800 5800 5802 5801 5803 5803 5802 5802 5802 5802 5802 5802
5803 5801 5799 5798 5797 5797 5796 5795 5794 5794 5794 5795 5794 5793 5793 5793 5792 5791 5792 5792 5793 5792 5792 5792 5793 5792 5792 5792 5793 5794 5795 5795 5795 5795 5795 5796 5797 5797 5797 5796 5796 5796 5797
5794 5793 5793 5792 5791 5789 5789 5788 5788 5788 5789 5788 5787 5787 5787 5785 5785 5785 5785 5785 5785 5785 5785 5785 5786 5787 5787 5786 5786 5786 5787 5788 5789 5789 5790 5790 5790 5790 5791 5790 5790 5790 5789
5787 5786 5786 5785 5784 5784 5783 5783 5782 5782 5782 5782 5780 5779 5779 5779 5778 5777 5777 5777 5777 5778 5778 5778 5778 5778 5779 5780 5780 5780 5780 5780 5780 5780 5780 5781 5782 5782 5783 5783 5783 5782 5782
5781 5781 5781 5779 5778 5778 5777 5776 5776 5775 5776 5775 5774 5772 5772 5772 5772 5771 5770 5770 5770 5770 5771 5771 5770 5770 5770 5770 5771 5772 5772 5772 5772 5772 5772 5772 5772 5772 5773 5774 5774 5774 5775
5774 5774 5774 5773 5771 5771 5770 5770 5768 5768 5768 5767 5766 5765 5765 5765 5764 5764 5764 5763 5763 5763 5763 5763 5763 5762 5762 5762 5762 5762 5762 5762 5762 5763 5762 5763 5763 5763 5763 5763 5763 5763 5764
5763 5764 5765 5764 5762 5762 5762 5761 5761 5760 5759 5758 5756 5756 5756 5756 5757 5756 5757 5756 5755 5755 5755 5754 5753 5753 5753 5753 5754 5754 5754 5753 5753 5752 5752 5752 5752 5751 5752 5754 5753 5752 5752
5754 5755 5755 5754 5754 5753 5751 5750 5750 5751 5750 5750 5748 5747 5748 5748 5748 5747 5747 5747 5747 5747 5747 5746 5746 5745 5744 5744 5744 5745 5745 5744 5743 5742 5741 5740 5740 5741 5741 5741 5742 5743 5742
5746 5746 5745 5744 5744 5743 5742 5740 5739 5740 5740 5741 5740 5740 5739 5737 5737 5738 5737 5737 5737 5737 5736 5736 5736 5735 5735 5734 5734 5734 5733 5733 5732 5731 5729 5729 5729 5727 5728 5728 5728 5729 5730
5736 5736 5736 5736 5735 5734 5733 5732 5731 5730 5730 5729 5730 5730 5729 5729 5729 5729 5729 5728 5728 5728 5727 5728 5727 5726 5725 5725 5724 5723 5722 5722 5720 5718 5717 5716 5715 5714 5714 5715 5714 5714 5715
5724 5725 5725 5725 5724 5724 5723 5723 5723 5722 5720 5719 5720 5719 5720 5721 5720 5719 5719 5719 5719 5718 5718 5718 5718 5717 5715 5714 5713 5712 5711 5710 5709 5706 5705 5702 5701 5699 5698 5697 5698 5699 5699
5711 5712 5713 5713 5713 5713 5713 5713 5713 5711 5709 5708 5708 5707 5708 5711 5711 5709 5709 5708 5707 5707 5707 5707 5707 5706 5703 5701 5699 5699 5698 5698 5697 5697 5692 5689 5686 5685 5682 5681 5680 5680 5679
5697 5699 5701 5702 5702 5703 5703 5702 5701 5700 5699 5698 5698 5696 5696 5699 5699 5698 5697 5697 5697 5697 5696 5695 5693 5691 5690 5688 5686 5685 5684 5684 5682 5682 5680 5676 5671 5669 5667 5664 5663 5661 5660
5683 5685 5686 5687 5689 5691 5691 5691 5690 5688 5688 5687 5687 5687 5688 5688 5689 5688 5687 5687 5686 5685 5684 5682 5680 5679 5677 5675 5673 5672 5671 5670 5669 5667 5665 5663 5657 5652 5650 5648 5646 5644 5643